カタログに戻る

STARLINK-35355

運用中通信VLEO
NORAD 66448·PAYLOAD·🇺🇸 United States

打ち上げ Nov 11, 2025 から Cape Canaveral Space Force Station

Loading…

次のパス (今後24時間)

TLE

最新Source: CelesTrak SupGP

元期: Sep 15, 2026, 03:49 UTC

1 66448C 25259AC  26258.15951389 -.00008740  00000+0 -31626-3 0  2584
2 66448  43.0000 284.6731 0001386 273.4865 103.7485 15.27614077    10

AllMySatでSTARLINK-35355をリアルタイム追跡

Download on the App Store